TimeEET,TemperatureF,Dew PointF,Humidity,Sea Level PressureIn,VisibilityMPH,Wind Direction,Wind SpeedMPH,Gust SpeedMPH,PrecipitationIn,Events,Conditions,WindDirDegrees,DateUTC
12:00 AM,60.8,48.2,63,30.06,-9999.0,NE,2.3,-,N/A,,Clear,40,2012-11-26 22:00:00
12:30 AM,60.8,50.0,68,30.06,-9999.0,ENE,2.3,-,N/A,,Clear,60,2012-11-26 22:30:00
1:00 AM,60.8,50.0,68,30.06,-9999.0,East,2.3,-,N/A,,Clear,80,2012-11-26 23:00:00
1:30 AM,60.8,51.8,72,30.06,-9999.0,ESE,3.5,-,N/A,,Clear,110,2012-11-26 23:30:00
2:00 AM,60,50,61,30.08,6,SE,4.6,,,,,130,2012-11-27 00:00:00
2:00 AM,60.8,51.8,72,30.06,-9999.0,SE,4.6,-,N/A,,Clear,130,2012-11-27 00:00:00
2:30 AM,59.0,50.0,72,30.06,-9999.0,SW,2.3,-,N/A,,Clear,230,2012-11-27 00:30:00
3:00 AM,59.0,50.0,72,30.06,-9999.0,South,2.3,-,N/A,,Clear,170,2012-11-27 01:00:00
3:30 AM,59.0,51.8,77,30.06,-9999.0,NNW,2.3,-,N/A,,Clear,340,2012-11-27 01:30:00
4:00 AM,60.8,51.8,72,30.06,-9999.0,NNW,3.5,-,N/A,,Clear,330,2012-11-27 02:00:00
4:30 AM,57.2,50.0,77,30.06,-9999.0,NNE,1.2,-,N/A,,Clear,30,2012-11-27 02:30:00
5:00 AM,59.0,50.0,72,30.06,3.7,East,3.5,-,N/A,,Unknown,80,2012-11-27 03:00:00
5:30 AM,59.0,50.0,72,30.06,3.7,NE,2.3,-,N/A,,Unknown,50,2012-11-27 03:30:00
6:00 AM,57.2,50.0,77,30.06,3.7,Calm,Calm,-,N/A,,Unknown,0,2012-11-27 04:00:00
6:30 AM,57.2,51.8,82,30.06,2.5,SSE,1.2,-,N/A,,Mist,160,2012-11-27 04:30:00
7:00 AM,57.2,50.0,77,30.06,1.2,ESE,1.2,-,N/A,,Mist,120,2012-11-27 05:00:00
7:30 AM,59.0,51.8,77,30.09,1.2,SE,2.3,-,N/A,,Mist,140,2012-11-27 05:30:00
8:00 AM,62,53,66,30.10,1,Calm,Calm,,,,Mist,,2012-11-27 06:00:00
8:00 AM,62.6,53.6,72,30.09,1.2,Calm,Calm,-,N/A,,Mist,0,2012-11-27 06:00:00
8:30 AM,66.2,55.4,68,30.09,1.2,Calm,Calm,-,N/A,,Mist,0,2012-11-27 06:30:00
9:00 AM,66.2,53.6,64,30.09,1.2,Calm,Calm,-,N/A,,Haze,0,2012-11-27 07:00:00
9:30 AM,66.2,53.6,64,30.09,1.2,North,3.5,-,N/A,,Haze,360,2012-11-27 07:30:00
10:00 AM,66.2,53.6,64,30.09,1.2,North,5.8,-,N/A,,Haze,350,2012-11-27 08:00:00
10:30 AM,68.0,55.4,64,30.09,3.7,North,8.1,-,N/A,,Unknown,350,2012-11-27 08:30:00
11:00 AM,68.0,59.0,73,30.09,3.7,North,5.8,-,N/A,,Unknown,10,2012-11-27 09:00:00
11:30 AM,69.8,53.6,56,30.06,3.7,North,9.2,-,N/A,,Unknown,10,2012-11-27 09:30:00
12:00 PM,69.8,53.6,56,30.06,3.7,North,9.2,-,N/A,,Unknown,10,2012-11-27 10:00:00
12:30 PM,69.8,53.6,56,30.06,-9999.0,North,9.2,-,N/A,,Clear,10,2012-11-27 10:30:00
1:00 PM,69.8,53.6,56,30.04,-9999.0,North,9.2,-,N/A,,Clear,10,2012-11-27 11:00:00
1:30 PM,69.8,53.6,56,30.04,-9999.0,NNW,9.2,-,N/A,,Clear,330,2012-11-27 11:30:00
2:00 PM,72,57,50,30.04,6,NNW,6.9,,,,Mostly Cloudy,340,2012-11-27 12:00:00
2:00 PM,71.6,57.2,60,30.04,-9999.0,NNW,6.9,-,N/A,,Clear,340,2012-11-27 12:00:00
2:30 PM,71.6,53.6,53,30.04,-9999.0,North,9.2,-,N/A,,Clear,10,2012-11-27 12:30:00
3:00 PM,69.8,51.8,53,30.04,-9999.0,North,12.7,-,N/A,,Clear,10,2012-11-27 13:00:00
3:30 PM,69.8,53.6,56,30.04,-9999.0,NNW,11.5,-,N/A,,Clear,340,2012-11-27 13:30:00
4:00 PM,69.8,53.6,56,30.04,6.2,North,15.0,-,N/A,,Mostly Cloudy,360,2012-11-27 14:00:00
4:30 PM,69.8,53.6,56,30.04,6.2,North,12.7,-,N/A,,Mostly Cloudy,360,2012-11-27 14:30:00
5:00 PM,69.8,55.4,60,30.04,6.2,North,12.7,-,N/A,,Scattered Clouds,360,2012-11-27 15:00:00
5:30 PM,68.0,55.4,64,30.04,6.2,North,11.5,-,N/A,,Scattered Clouds,360,2012-11-27 15:30:00
6:00 PM,68.0,53.6,60,30.06,6.2,NNE,13.8,-,N/A,,Partly Cloudy,20,2012-11-27 16:00:00
6:30 PM,68.0,53.6,60,30.06,6.2,NNE,13.8,-,N/A,,Partly Cloudy,20,2012-11-27 16:30:00
7:00 PM,66.2,53.6,64,30.06,-9999.0,NNE,11.5,-,N/A,,Clear,20,2012-11-27 17:00:00
7:30 PM,66.2,53.6,64,30.06,-9999.0,NNE,11.5,-,N/A,,Clear,20,2012-11-27 17:30:00
8:00 PM,66,54,57,30.10,6,NNE,8.1,,,,,30,2012-11-27 18:00:00
8:00 PM,66.2,53.6,64,30.09,-9999.0,NNE,8.1,-,N/A,,Clear,30,2012-11-27 18:00:00
8:30 PM,66.2,53.6,64,30.09,-9999.0,NNE,8.1,-,N/A,,Clear,30,2012-11-27 18:30:00
9:00 PM,62.6,51.8,68,30.09,-9999.0,ENE,5.8,-,N/A,,Clear,70,2012-11-27 19:00:00
9:30 PM,60.8,51.8,72,30.09,-9999.0,ENE,4.6,-,N/A,,Clear,60,2012-11-27 19:30:00
10:00 PM,60.8,53.6,77,30.09,-9999.0,ENE,3.5,-,N/A,,Clear,70,2012-11-27 20:00:00
10:30 PM,60.8,53.6,77,30.09,-9999.0,East,6.9,-,N/A,,Clear,90,2012-11-27 20:30:00
11:00 PM,60.8,53.6,77,30.09,-9999.0,East,6.9,-,N/A,,Clear,80,2012-11-27 21:00:00
11:30 PM,60.8,53.6,77,30.09,-9999.0,East,6.9,-,N/A,,Clear,80,2012-11-27 21:30:00